User: anonymous   Login
Location: Theydon Bois
(51.6750°N, 0.1050°E)
Time: 05:39:55
(UTC+01:00)
Language:

SL-8 Rocket - Orbit

View from above orbital plane
View from above orbital plane
View from above satellite
View from above satellite

Ground track
Ground track

The orbit data is extracted from the following two-line orbital elements,

1 21088U 91006B   17294.57550670 +.00000131 +00000-0 +11747-3 0  9991
2 21088 082.9388 286.2730 0021771 329.8320 169.6168 13.77073616342728
Epoch (UTC): 21 October 2017 13:48:43
Eccentricity: 0.0021771
inclination: 82.9388°
perigee height: 958 km
apogee height: 990 km
right ascension of ascending node: 286.2730°
argument of perigee: 329.8320°
revolutions per day: 13.77073616
mean anomaly at epoch: 169.6168°
orbit number at epoch: 34272

The dashed part of the orbit path shows where the satellite is in the earth's shadow,  

DLR